Tracking 35280 objects as of 7-Sep-2026
HD Live streaming from Space Station
objects crossing your sky now

BRO-16

Track BRO-16 now!
10-day predictions
BRO-16 is classified as:


NORAD ID: 62654
Int'l Code: 2025-009AX
Launch date: January 14, 2025
Source: France (FR)
Launch site: AIR FORCE WESTERN TEST RANGE (AFWTR)

Uplink (MHz):
Downlink (MHz): 401.735/2260.500
Beacon (MHz):
Mode: 4k8/9k6* FSK
Call sign:
Status: Inactive

Your satellite tracking list
Your tracking list is empty




NASA's NSSDC Master Catalog

Two Line Element Set (TLE):
1 62654U 25009AX  26249.94445580  .00003230  00000-0  13447-3 0  9991
2 62654  97.4012 329.4276 0002719  52.2751 307.8733 15.24457374 91252
Source of the keplerian elements: AFSPC